FW5493 Weather Reports


Display with metric or nautical units.
time (UTC)temp
F
wind
direction
speed
MPH
gust
MPH
rain 1hr
in
rain 24hr
in
rain mn
in
humidity
%
barometer
mb
20260502224532 67 80 1.0 9.0 0.00 0.00 0.00 32 1018.6
20260502223029 68 333 4.0 11.0 0.00 0.00 0.00 31 1018.9
20260502221533 68 0 0.0 4.0 0.00 0.00 0.00 32 1019.3
20260502220031 67 283 4.0 11.0 0.00 0.00 0.00 33 1019.5
20260502214530 69 332 9.0 14.0 0.00 0.00 0.00 32 1019.8
20260502213039 68 148 4.0 12.0 0.00 0.00 0.00 33 1019.9
20260502211532 69 0 4.0 14.0 0.00 0.00 0.00 32 1020.1
20260502210031 68 32 4.0 15.0 0.00 0.00 0.00 33 1020.1
20260502204532 67 296 5.0 14.0 0.00 0.00 0.00 34 1020.4
20260502203032 66 338 8.0 13.0 0.00 0.00 0.00 34 1020.5
20260502201534 67 13 5.0 12.0 0.00 0.00 0.00 35 1020.8
20260502200030 66 41 5.0 13.0 0.00 0.00 0.00 35 1021.0
20260502194531 66 319 8.0 13.0 0.00 0.00 0.00 34 1021.1
20260502193032 66 19 6.0 16.0 0.00 0.00 0.00 35 1021.3
20260502191529 66 50 10.0 16.0 0.00 0.00 0.00 35 1021.4
20260502190029 65 76 8.0 20.0 0.00 0.00 0.00 36 1021.4
20260502184531 65 51 9.0 17.0 0.00 0.00 0.00 37 1021.5
20260502183033 65 49 14.0 21.0 0.00 0.00 0.00 36 1021.7
20260502181543 65 35 11.0 21.0 0.00 0.00 0.00 38 1021.9
20260502163033 59 51 5.0 14.0 0.00 0.00 0.00 43 1022.2
20260502161530 59 20 5.0 11.0 0.00 0.00 0.00 43 1022.3
20260502151529 55 44 1.0 8.0 0.00 0.00 0.00 47 1022.4
20260502123028 48 294 8.0 16.0 0.00 0.00 0.00 61 1021.1
20260502121531 48 317 11.0 18.0 0.00 0.00 0.00 62 1020.9
20260502114531 46 288 4.0 11.0 0.00 0.00 0.00 63 1020.6
20260502113028 44 284 4.0 9.0 0.00 0.00 0.00 62 1020.6
20260502111528 43 268 8.0 11.0 0.00 0.00 0.00 61 1020.6
20260502110031 40 295 7.0 13.0 0.00 0.00 0.00 65 1020.5
20260502104530 38 229 5.0 7.0 0.00 0.00 0.00 63 1020.3
20260502103030 38 274 2.0 22.0 0.00 0.00 0.00 62 1020.2
20260502101535 39 190 1.0 3.0 0.00 0.00 0.00 64 1019.6
20260502091530 44 214 0.0 3.0 0.00 0.00 0.00 56 1019.2
20260502071528 49 0 0.0 0.0 0.00 0.00 0.00 42 1018.8
20260502070028 49 0 0.0 3.0 0.00 0.00 0.00 41 1018.9
20260502064549 49 232 1.0 4.0 0.00 0.00 0.00 40 1018.8
20260502063036 51 232 1.0 3.0 0.00 0.00 0.00 38 1018.7
20260502061528 50 232 2.0 5.0 0.00 0.00 0.00 39 1018.7
20260502060030 49 292 1.0 3.0 0.00 0.00 0.00 42 1018.5
20260502054530 50 292 2.0 4.0 0.00 0.00 0.00 41 1018.5
20260502053028 50 277 2.0 6.0 0.00 0.00 0.00 40 1018.3
20260502051538 51 285 2.0 4.0 0.00 0.00 0.00 40 1018.3
20260502050029 53 303 3.0 5.0 0.00 0.00 0.00 37 1018.3
20260502044538 53 0 0.0 0.0 0.00 0.00 0.00 37 1018.3
20260502043031 54 290 2.0 4.0 0.00 0.00 0.00 36 1018.3
20260502041534 55 274 2.0 6.0 0.00 0.00 0.00 35 1018.2
20260502040040 56 275 4.0 9.0 0.00 0.00 0.00 35 1018.1
20260502034533 58 281 6.0 9.0 0.00 0.00 0.00 33 1018.0
20260502033033 59 267 5.0 11.0 0.00 0.00 0.00 33 1017.6
20260502031534 60 273 6.0 9.0 0.00 0.00 0.00 32 1017.5
20260502030032 62 217 3.0 7.0 0.00 0.00 0.00 30 1017.3
20260502024532 62 191 3.0 7.0 0.00 0.00 0.00 30 1017.2
20260502023037 64 181 2.0 7.0 0.00 0.00 0.00 29 1017.0
20260502021607 66 183 2.0 6.0 0.00 0.00 0.00 30 1017.0
20260502020033 69 184 3.0 6.0 0.00 0.00 0.00 27 1016.9
20260502014543 71 166 3.0 6.0 0.00 0.00 0.00 26 1017.0
20260502013031 73 184 4.0 10.0 0.00 0.00 0.00 24 1017.0
20260502011530 73 213 6.0 12.0 0.00 0.00 0.00 21 1017.0
20260502010033 74 251 5.0 13.0 0.00 0.00 0.00 22 1017.1
20260502004535 73 257 4.0 11.0 0.00 0.00 0.00 22 1017.2
20260502003031 74 212 5.0 12.0 0.00 0.00 0.00 22 1017.3
20260502001549 74 266 5.0 19.0 0.00 0.00 0.00 22 1017.2
20260502000035 74 254 7.0 15.0 0.00 0.00 0.00 21 1017.5
20260501234551 75 232 8.0 17.0 0.00 0.00 0.00 23 1017.5
20260501233030 75 300 3.0 7.0 0.00 0.00 0.00 21 1017.5
20260501231537 74 167 6.0 14.0 0.00 0.00 0.00 23 1017.7
20260501230032 74 196 6.0 13.0 0.00 0.00 0.00 22 1017.9